This demonstration page uses our WeatherBlox Daily Observations layout. Learn more.

Left ArrowRight Arrow

40.92945, -100.16068

Hourly Observations for August 19, 2022

Temp ( °F °C ) Dew Point ( °F °C ) Humidity (%) Winds ( mph kmh ) Pressure ( in mb ) Visibility ( mi km ) Precip ( " mm )
12:15 am 00:15 Partly Cloudy 67 19.2 62 16.5 84 84 ENE 6 9 29.91 1013 10 16 0.00 0.00
12:35 am 00:35 Partly Cloudy 68 19.8 62 16.5 81 81 E 5 7 29.91 1013 10 16 0.00 0.00
12:55 am 00:55 Clear 66 19.1 62 16.6 85 85 Calm 29.91 1013 10 16 0.00 0.00
1:15 am 01:15 Clear 65 18.6 62 16.5 88 88 Calm 29.92 1013 10 16 0.00 0.00
1:35 am 01:35 Clear 65 18.1 61 16.2 89 89 Calm 29.91 1013 10 16 0.00 0.00
1:55 am 01:55 Clear 64 17.5 61 16 91 91 Calm 29.91 1013 10 16 0.00 0.00
2:15 am 02:15 Clear 63 17 60 15.6 91 91 WNW 3 6 29.92 1013 10 16 0.00 0.00
2:35 am 02:35 Partly Cloudy 62 16.4 60 15.3 93 93 NW 3 6 29.91 1013 10 16 0.00 0.00
2:55 am 02:55 Partly Cloudy 61 16.1 59 15.2 94 94 NNW 3 6 29.92 1013 10 16 0.00 0.00
3:15 am 03:15 Partly Cloudy 61 15.9 59 15 94 94 NNW 5 7 29.92 1013 10 16 0.00 0.00
3:35 am 03:35 Partly Cloudy 62 16.6 60 15.5 93 93 Calm 29.90 1013 10 16 0.00 0.00
3:55 am 03:55 Clear 61 16 59 15 94 94 WNW 3 6 29.91 1013 10 16 0.00 0.00
4:15 am 04:15 Clear 61 15.9 59 15 94 94 W 5 7 29.91 1013 10 16 0.00 0.00
4:35 am 04:35 Partly Cloudy 60 15.4 58 14.6 95 95 W 3 6 29.90 1013 7 11 0.00 0.00
4:55 am 04:55 Partly Cloudy with Mist and Fog 59 15 58 14.3 96 96 Calm 29.91 1013 5 8 0.00 0.00
5:15 am 05:15 Partly Cloudy with Mist and Fog 60 15.5 58 14.6 94 94 NNW 3 6 29.90 1013 5 8 0.00 0.00
5:35 am 05:35 Partly Cloudy 60 15.6 58 14.7 94 94 Calm 29.90 1013 7 11 0.00 0.00
5:55 am 05:55 Partly Cloudy 60 15.5 58 14.6 94 94 NNW 3 6 29.90 1013 7 11 0.00 0.00
6:15 am 06:15 Partly Cloudy with Mist and Fog 60 15.5 58 14.6 94 94 Calm 29.90 1013 5 8 0.00 0.00
6:35 am 06:35 Partly Cloudy 59 15 58 14.2 95 95 Calm 29.91 1013 7 11 0.00 0.00
6:55 am 06:55 Partly Cloudy 59 15.2 58 14.3 94 94 NW 3 6 29.91 1013 7 11 0.00 0.00
7:15 am 07:15 Sunny with Mist and Fog 59 15 58 14.2 95 95 Calm 29.91 1013 5 8 0.00 0.00
7:35 am 07:35 Sunny with Mist and Fog 60 15.7 59 14.8 94 94 Calm 29.91 1013 5 8 0.00 0.00
7:55 am 07:55 Sunny with Mist and Fog 60 15.6 59 14.8 95 95 WSW 5 7 29.92 1013 5 8 0.00 0.00
8:15 am 08:15 Sunny with Mist and Fog 63 17.1 60 15.6 91 91 WNW 5 7 29.91 1013 5 8 0.00 0.00
8:35 am 08:35 Partly Cloudy with Light Rain 65 18.2 61 16.1 88 88 NW 5 7 29.91 1013 4 6 0.00 0.00
8:55 am 08:55 Mostly Cloudy with Mist and Fog 64 18 62 16.5 91 91 NW 8 13 29.92 1013 5 8 0.00 0.00
9:15 am 09:15 Partly Cloudy with Mist and Fog 64 18 62 16.4 90 90 N 6 9 29.92 1013 5 8 0.00 0.00
9:35 am 09:35 Mostly Cloudy with Mist and Fog 66 19 63 17.1 89 89 NNW 9 15 29.93 1014 5 8 0.00 0.00
9:55 am 09:55 Cloudy with Nearby Thunderstorms 65 18.6 62 16.6 88 88 Calm 29.92 1013 7 11 0.01 0.25
10:15 am 10:15 Partly Cloudy 67 19.4 63 17 86 86 NW 3 6 29.91 1013 7 11 0.00 0.00
10:35 am 10:35 Partly Cloudy with Light Rain 69 20.5 63 17 80 80 NW 7 11 29.91 1013 5 8 0.00 0.00
10:55 am 10:55 Partly Cloudy 71 21.8 64 17.7 78 78 WNW 5 7 29.90 1012 7 11 0.00 0.00
11:15 am 11:15 Partly Cloudy with Light Rain 72 22 64 17.7 77 77 Calm 29.90 1012 7 11 0.00 0.00
11:35 am 11:35 Partly Cloudy 74 23.5 64 17.9 71 71 Calm 29.88 1012 7 11 0.00 0.00
11:55 am 11:55 Mostly Cloudy 76 24.2 63 17.2 65 65 NNW 3 6 29.88 1012 7 11 0.00 0.00
12:15 pm 12:15 Mostly Cloudy 78 25.7 59 14.8 51 51 N 8 13 29.86 1011 7 11 0.00 0.00
12:35 pm 12:35 Mostly Cloudy 77 25.1 59 15.1 54 54 NNE 3 6 29.87 1011 7 11 0.00 0.00
12:55 pm 12:55 Partly Cloudy 80 26.6 59 14.8 48 48 NE 6 9 29.85 1011 7 11 0.00 0.00
1:15 pm 13:15 Partly Cloudy 80 26.7 58 14.5 47 47 Calm 29.84 1010 7 11 0.00 0.00
1:35 pm 13:35 Sunny 82 27.7 58 14.6 45 45 NE 3 6 29.83 1010 10 16 0.00 0.00
1:55 pm 13:55 Sunny 83 28.4 58 14.3 42 42 NNE 6 9 29.81 1010 10 16 0.00 0.00
2:15 pm 14:15 Partly Cloudy 84 28.7 57 14 41 41 N 8 13 29.82 1010 10 16 0.00 0.00
2:35 pm 14:35 Partly Cloudy 84 29 56 13.2 38 38 NNE 6 9 29.81 1009 10 16 0.00 0.00
2:55 pm 14:55 Partly Cloudy 86 29.8 56 13.2 36 36 NNW 7 11 29.80 1009 10 16 0.00 0.00
3:15 pm 15:15 Partly Cloudy 82 27.8 55 13 40 40 N 5 7 29.81 1009 10 16 0.00 0.00
3:35 pm 15:35 Sunny 86 30.1 54 12.4 34 34 WNW 8 13 29.79 1009 10 16 0.00 0.00
3:55 pm 15:55 Partly Cloudy 84 28.8 53 11.7 35 35 NNW 7 11 29.79 1009 7 11 0.00 0.00
4:15 pm 16:15 Partly Cloudy 84 29.1 55 12.5 36 36 N 3 6 29.79 1009 7 11 0.00 0.00
4:35 pm 16:35 Partly Cloudy 83 28.6 54 12.2 36 36 NNW 10 17 29.78 1009 10 16 0.00 0.00
4:55 pm 16:55 Mostly Cloudy 85 29.5 54 12.4 35 35 N 7 11 29.77 1008 7 11 0.00 0.00
5:15 pm 17:15 Mostly Cloudy 84 29.1 55 12.7 36 36 N 7 11 29.78 1008 7 11 0.00 0.00
5:35 pm 17:35 Partly Cloudy 85 29.6 53 11.4 33 33 N 7 11 29.77 1008 7 11 0.00 0.00
5:55 pm 17:55 Hazy 84 29.1 53 11.5 34 34 N 9 15 29.78 1008 5 8 0.00 0.00
6:15 pm 18:15 Sunny 84 28.8 53 11.8 35 35 N 6 9 29.78 1008 10 16 0.00 0.00
6:35 pm 18:35 Sunny 83 28.3 53 11.6 36 36 N 9 15 29.78 1009 7 11 0.00 0.00
6:55 pm 18:55 Sunny 82 27.9 53 11.8 37 37 NNW 7 11 29.80 1009 7 11 0.00 0.00
7:15 pm 19:15 Sunny 81 27 54 12 39 39 N 7 11 29.80 1009 7 11 0.00 0.00
7:35 pm 19:35 Sunny 78 25.6 55 12.7 45 45 N 6 9 29.82 1010 7 11 0.00 0.00
7:55 pm 19:55 Sunny 76 24.3 54 12.2 47 47 N 6 9 29.83 1010 10 16 0.00 0.00
8:15 pm 20:15 Sunny 74 23.5 53 11.4 47 47 NNE 6 9 29.85 1011 7 11 0.00 0.00
8:35 pm 20:35 Clear 70 21.1 53 11.8 55 55 NNE 7 11 29.88 1012 7 11 0.00 0.00
8:55 pm 20:55 Clear 67 19.5 56 13.1 67 67 NNE 6 9 29.91 1013 10 16 0.00 0.00
9:15 pm 21:15 Clear 66 18.7 56 13.5 72 72 N 7 11 29.91 1013 10 16 0.00 0.00
9:35 pm 21:35 Clear 64 17.9 56 13.1 74 74 N 7 11 29.93 1014 10 16 0.00 0.00
9:55 pm 21:55 Clear 63 17.2 56 13.1 77 77 NNE 8 13 29.95 1014 10 16 0.00 0.00
10:15 pm 22:15 Clear 63 17.2 54 12.3 73 73 N 8 13 29.96 1014 10 16 0.00 0.00
10:35 pm 22:35 Clear 61 16 55 12.6 80 80 NNE 6 9 29.98 1015 10 16 0.00 0.00
10:55 pm 22:55 Clear 60 15.4 55 12.7 84 84 N 3 6 29.99 1016 10 16 0.00 0.00
11:15 pm 23:15 Clear 60 15.5 55 13 85 85 Calm 29.99 1016 10 16 0.00 0.00
11:35 pm 23:35 Clear 59 14.9 55 12.9 88 88 Calm 30.00 1016 10 16 0.00 0.00
11:55 pm 23:55 Clear 59 15 56 13.2 89 89 Calm 30.01 1016 10 16 0.00 0.00

Powered by AerisWeather